La Grande, OR

2:33 AM PST on December 06, 2019 (GMT -0800)
La Grande-Union County

Weather History for KLGD - September, 2019

Change the Weather History Date:

Wednesday, September 11, 2019

  Actual Average Record
Temperature  
Mean Temperature 58 °F -  
Max Temperature 70 °F 74 °F 94 °F (1990)
Min Temperature 48 °F 44 °F 28 °F (2005)
Degree Days  
Heating Degree Days 7    
Growing Degree Days 8 (Base 50)    
Moisture  
Dew Point 48 °F    
Average Humidity 71    
Maximum Humidity 97    
Minimum Humidity 47    
Precipitation  
Precipitation 0.00 in - - ()
Sea Level Pressure  
Sea Level Pressure 30.55 in    
Wind  
Wind Speed 7 mph (NW)    
Max Wind Speed 15 mph    
Max Gust Speed 17 mph    
Visibility 10 miles    
Events      
Averages and records for this station are not official NWS values.
T = Trace of Precipitation, MM = Missing Value Source: NWS Daily Summary

Daily Weather History Graph

Daily Weather History Graph

Search for Another Location

Airport or City:

Astronomy

Sep. 11, 2019 Rise Set
Actual Time 6:25 AM PDT 7:10 PM PDT
Civil Twilight 5:55 AM PDT 7:40 PM PDT
Nautical Twilight 5:20 AM PDT 8:16 PM PDT
Astronomical Twilight 4:43 AM PDT 8:52 PM PDT
Moon 6:34 PM PDT (9/11) 3:42 AM PDT (9/11)
Length of Visible Light 13h 44m
Length of Day
12h 45m
Waxing Gibbous, 95% of the Moon is Illuminated
Sep 11
Waxing Gibbous
Sep 13
Full
Sep 21
Last Quarter
Sep 28
New
Oct 5
First Quarter

Hourly Weather History & Observations

Time (PDT) Temp. Dew Point Humidity Pressure Visibility Wind Dir Wind Speed Gust Speed Precip Events Conditions
12:56 AM 48.9 °F 48.0 °F 97% 30.43 in 10.0 mi SSW 4.6 mph - N/A   Overcast
1:56 AM 50.0 °F 48.9 °F 96% 30.44 in 10.0 mi Calm Calm - N/A   Overcast
2:56 AM 50.0 °F 48.0 °F 93% 30.45 in 10.0 mi Calm Calm - N/A   Overcast
4:56 AM 53.1 °F 48.0 °F 83% 30.47 in 10.0 mi NW 9.2 mph - N/A   Overcast
5:56 AM 51.1 °F 46.9 °F 86% 30.49 in 10.0 mi NNW 10.4 mph - N/A   Mostly Cloudy
6:56 AM 53.1 °F 46.9 °F 80% 30.50 in 10.0 mi NW 8.1 mph - N/A   Scattered Clouds
7:56 AM 57.0 °F 48.0 °F 72% 30.52 in 10.0 mi NW 12.7 mph - N/A   Overcast
8:56 AM 57.0 °F 48.9 °F 74% 30.54 in 10.0 mi NW 12.7 mph - N/A   Overcast
9:56 AM 60.1 °F 48.0 °F 64% 30.56 in 10.0 mi NW 13.8 mph - N/A   Overcast
10:56 AM 61.0 °F 48.9 °F 64% 30.56 in 10.0 mi WNW 15.0 mph - N/A   Partly Cloudy
11:56 AM 66.0 °F 51.1 °F 59% 30.56 in 10.0 mi WNW 11.5 mph 17.3 mph N/A   Clear
12:56 PM 66.9 °F 48.9 °F 52% 30.56 in 10.0 mi NNW 9.2 mph - N/A   Clear
1:56 PM 64.0 °F 46.9 °F 54% 30.56 in 10.0 mi NNW 10.4 mph - N/A   Overcast
3:56 PM 68.0 °F 46.9 °F 47% 30.56 in 10.0 mi ENE 8.1 mph - N/A   Clear
4:56 PM 64.9 °F 48.0 °F 54% 30.56 in 10.0 mi North 10.4 mph - N/A   Clear
5:56 PM 64.9 °F 48.9 °F 56% 30.58 in 10.0 mi NNW 5.8 mph - N/A   Clear
6:56 PM 62.1 °F 48.9 °F 62% 30.58 in 10.0 mi WNW 8.1 mph - N/A   Clear
7:56 PM 59.0 °F 48.0 °F 67% 30.60 in 10.0 mi Variable 3.5 mph - N/A   Clear
8:56 PM 53.1 °F 46.9 °F 80% 30.61 in 10.0 mi SSW 4.6 mph - N/A   Clear
9:56 PM 53.1 °F 46.9 °F 80% 30.62 in 10.0 mi SSE 4.6 mph - N/A   Clear
10:56 PM 53.1 °F 46.0 °F 77% 30.62 in 10.0 mi SSW 4.6 mph - N/A   Clear
11:56 PM 54.0 °F 46.0 °F 75% 30.63 in 10.0 mi Calm Calm - N/A   Clear